Regional Weather Roundup
Issued by NWS

Home | Current Version | Previous Version | Text Only | Print | Product List | Glossary Off
Versions: 1 2 3 4 5 6 7 8 9 10 11 12 13 14 15 16 17 18 19 20 21 22 23 24 25 26 27 28 29 30 31 32 33 34 35 36 37 38 39 40 41 42 43 44 45 46 47 48 49

000
ASUS45 KBOU 192207
RWRCO

WEATHER ROUNDUP FOR COLORADO
NATIONAL WEATHER SERVICE DENVER/BOULDER CO
400 PM MDT FRI SEP 19 2014

NOTE: "FAIR" INDICATES FEW OR NO CLOUDS BELOW 12000 FEET WITH NO
SIGNIFICANT WEATHER AND/OR OBSTRUCTIONS TO VISIBILITY.

COZ001>005-013-030-031-192300-
...NORTHWEST COLORADO...

CITY           SKY/WX    TMP DP  RH WIND       PRES   REMARKS
CRAIG          SUNNY     82  43  25 W15       30.08F
HAYDEN         SUNNY     81  37  21 NW12G21   30.10F
MEEKER         MOSUNNY   83  40  21 NW10      30.09F
MOUNT WERNER   NOT AVBL
STEAMBOAT SPGS SUNNY     79  38  23 W14G22    30.12S
WALDEN         PTSUNNY   73  37  27 NW12      30.21S
$$

COZ006>008-011-192300-
...WEST CENTRAL VALLEYS...

CITY           SKY/WX    TMP DP  RH WIND       PRES   REMARKS
GRAND JUNCTION SUNNY     86  42  21 NW7       29.97F
MONTROSE       MOSUNNY   86  41  20 NW9       30.05F
EAGLE          MOSUNNY   84  36  17 SW16      30.08F
RIFLE          SUNNY     86  31  13 W8        30.01F
DELTA          MOSUNNY   91  39  16 SW10G17   29.99F
NUCLA          MOSUNNY   84  41  21 W5        30.09F
$$

COZ017>023-064>068-192300-
...SOUTHWEST COLORADO...

CITY           SKY/WX    TMP DP  RH WIND       PRES   REMARKS
DURANGO        MOSUNNY   83  40  21 SW9       30.08F
CORTEZ         SUNNY     85  43  22 W13G21    30.05F
PAGOSA SPRINGS MOSUNNY   80  32  17 SW7G16    30.14F
TELLURIDE      NOT AVBL
WOLF CREEK PAS PTSUNNY   55  36  47 SW3       30.48F
$$

COZ009-010-012-014-032>034-037-058>063-192300-
...CENTRAL COLORADO...

CITY           SKY/WX    TMP DP  RH WIND       PRES   REMARKS
ASPEN          MOSUNNY   77  35  21 NW9       30.16F
BUENA VISTA    MOSUNNY   75  28  17 N20G29    30.17R
COPPER MTN     NOT AVBL
BERTHOUD PASS  FAIR      50  48  93 N5        30.56S
COTTONWOOD PAS CLOUDY    70  27  19 CALM      30.33S
GUNNISON       SUNNY     79  34  19 W7        30.18F
KREMMLING      PTSUNNY   79  34  19 NW7       30.15R
LEADVILLE      MOSUNNY   70  26  19 N9        30.31F
MONARCH PASS   MOSUNNY   63  30  29 SW15      30.59F
SALIDA         MOSUNNY   84  21  10 W7        30.17F
SUNLIGHT       MOSUNNY   64  41  42 CALM      30.44F
WILKERSON PASS NOT AVBL
$$

COZ069>075-192300-
...SAN LUIS VALLEY/SANGRE DE CRISTO MOUNTAINS...

CITY           SKY/WX    TMP DP  RH WIND       PRES   REMARKS
ALAMOSA        SUNNY     80  32  17 VRB5      30.12F
LA VETA PASS   SUNNY     68  30  24 NE10G18   30.35S
SAGUACHE       NOT AVBL
$$

COZ035-036-038>040-192300-
...NORTHERN COLORADO FRONT RANGE...

CITY           SKY/WX    TMP DP  RH WIND       PRES   REMARKS
DENVER INTL AP MOSUNNY   87  40  19 SE7       29.96F
DMNS CITY PARK   N/A     87  39  18 S1G12     29.94F
AURORA         MOSUNNY   86  40  20 E5        29.99F
FRONT RANGE AP NOT AVBL
ERIE MUNI ARPT SUNNY     89  36  15 SE8       29.94S
BOULDER MUN AP SUNNY     88  43  20 SE7       29.95S
CENTENNIAL     MOSUNNY   85  38  18 SE7       30.00F
BROOMFIELD     MOSUNNY   86  37  17 S8        29.99F
FORT COLLINS   MOSUNNY   82  46  28 W8        29.95R
LONGMONT       MOSUNNY   91  42  17 S5        29.95F
$$

COZ041-046-047-076>085-087-088-192300-
...PIKES PEAK/PALMER DIVIDE AND SOUTHERN FOOTHILLS...

CITY           SKY/WX    TMP DP  RH WIND       PRES   REMARKS
COLO. SPRINGS  MOSUNNY   85  35  16 E10       30.04F
A. F. ACADEMY  SUNNY     83  35  17 N10       30.05F
ELLICOTT       NOT AVBL
FALCON         MOSUNNY   83  34  17 E5        30.10F
FORT CARSON    MOSUNNY   87  37  17 NE8       30.01F
LIMON          SUNNY     88  37  16 E7        29.97F
MONUMENT HILL  SUNNY     79  36  21 E8        30.10F
TRINIDAD       SUNNY     86  37  17 NE9       29.99F
$$

COZ042>045-048>051-090-091-192300-
...NORTHEAST COLORADO...

CITY           SKY/WX    TMP DP  RH WIND       PRES   REMARKS
GREELEY ARPT   MOSUNNY   90  43  19 W3        29.92F
AKRON          SUNNY     89  42  19 N12       29.91F
BURLINGTON     SUNNY     89  48  24 SW15      29.90F
WRAY           SUNNY     94  47  20 S12       29.84F
STERLING       SUNNY     91  52  25 E8        29.85F
HOLYOKE        SUNNY     95  46  18 CALM      29.85S
FORT MORGAN    SUNNY     88  46  22 SE9       29.91F
$$

COZ086-089-092>099-192300-
...SOUTHEAST COLORADO...

CITY           SKY/WX    TMP DP  RH WIND       PRES   REMARKS
PUEBLO         SUNNY     90  38  16 SE13G21   29.91F
LA JUNTA       SUNNY     91  41  17 SE8       29.88F
LAMAR          SUNNY     92  56  29 S17G26    29.84F
SPRINGFIELD      N/A     83  58  42 S20G25    29.95S
$$



USA.gov is the U.S. government's official web portal to all federal, state and local government web resources and services.